OPS 4682 DEB, 38387

Orbit data source: Space-Track

OPS 4682 DEB, 38387 is space debris in LEO originally from a launch on Sat, 03 Apr 1965 UTC launched from the Air Force Western Test Range (AFWTR). Debris objects in space refer to the collection of defunct objects orbiting the Earth. Examples of debris include non-operational satellites, rocket bodies, and fragments generated from explosions, collisions, or faulty payload assembly.

Loading next visibility...
Identifier
38387, 1965-027CQ
Orbit
LEO
Country
Flag of USUS
Related business
Manufacturer
Unknown
Mission
Spacecraft
Bus & Motor
Unknown
Mass
Unknown
Launch date (UTC)
1965-04-03 (61 years ago)
Launch vehicle
Unknown
Launch site
Air Force Western Test Range (AFWTR)
Object type
Payload
Rocket body
Debris
Shape & HBR
Unknown shape, 0.1 m
Radar Cross Section
Small (<0.1 m²)

Expand to show TLE details & history
Last TLE update: 18 hours ago

TLE from 18 hours ago
0 OPS 4682 DEB
1 38387U 65027CQ  26103.96135562  .00000091  00000-0  29201-3 0  9995
2 38387  90.2482   3.9299 0022473 277.0540  82.8024 12.96423564595523
Epoch: 2026-04-13T23:04Z
TLE epoch observation values (Epoch: 2026-04-13T23:04:21.125Z)
Latitude
-0.00007°
Longitude
175.69743°
Altitude
1,276.892 km
Speed
7.218 km/s
True Right ascension
00h 15m 43s
True Declination
0° 00' 00"
Sunlit
Object was in daylight at epoch
Visualization orbit readout
Latitude
Unknown
Longitude
Unknown
Altitude
Unknown
Speed
Unknown
Apparent Right ascension
Unknown
Apparent Declination
Unknown
Sunlit
N/A
Visualization observer readout
Local Sidereal Time
23:48:02
Azimuth
Unknown
Elevation
Unknown
Doppler factor
Unknown
Orbital elements
Apogee altitude
1,290.459 km
Perigee altitude
1,256.069 km
Semi-major axis
7,651.401 km
Eccentricity
0.00225
Inclination
90.2482°
RAAN
3.9299°
Arg. of periapsis
277.054°
True anomaly
83.05798°
Mean anomaly
82.8024°
Eccentric anomaly
82.93018°
Mean motion
3.24289 °/min
Orbital period
111.01 mins
BSTAR
0.00029201
Loading maneuver chart data...
Computing Atmospheric mass density...
Loading historical data...
Loading historical data...
Loading historical data...
Loading historical data...
Loading historical data...
Loading historical data...
Loading historical data...

Documentation

Showing up to 5 results
|